KI6PPU Weather Reports


Display with metric or nautical units.
time (UTC)temp
F
wind
direction
speed
MPH
gust
MPH
rain 1hr
in
rain 24hr
in
rain mn
in
humidity
%
barometer
mb
20230609041230 67 74 0.0 2.0 0.00 0.00 0.00 60 1017.9
20230609040727 67 45 0.0 3.0 0.00 0.00 0.00 59 1017.7
20230609040222 67 82 3.0 4.0 0.00 0.00 0.00 60 1017.8
20230609035722 67 4 2.0 3.0 0.00 0.00 0.00 61 1017.8
20230609035217 67 12 1.0 2.0 0.00 0.00 0.00 62 1017.7
20230609034715 68 215 0.0 2.0 0.00 0.00 0.00 60 1017.6
20230609034213 68 196 0.0 2.0 0.00 0.00 0.00 62 1017.6
20230609033711 68 198 0.0 2.0 0.00 0.00 0.00 62 1017.5
20230609033207 69 215 0.0 2.0 0.00 0.00 0.00 61 1017.5
20230609032707 69 255 1.0 2.0 0.00 0.00 0.00 59 1017.5
20230609032202 70 243 0.0 2.0 0.00 0.00 0.00 59 1017.5
20230609031700 71 331 1.0 2.0 0.00 0.00 0.00 58 1017.2
20230609031158 71 331 1.0 2.0 0.00 0.00 0.00 55 1017.4
20230609030656 72 306 1.0 2.0 0.00 0.00 0.00 55 1017.4
20230609030151 72 0 0.0 3.0 0.00 0.00 0.00 53 1017.4
20230609025648 73 336 0.0 3.0 0.00 0.00 0.00 53 1017.3
20230609025147 73 285 0.0 4.0 0.00 0.00 0.00 52 1017.2
20230609024644 73 313 3.0 5.0 0.00 0.00 0.00 52 1017.1
20230609024142 73 307 2.0 5.0 0.00 0.00 0.00 52 1017.1
20230609023640 73 270 0.0 4.0 0.00 0.00 0.00 52 1017.3
20230609023135 74 210 2.0 4.0 0.00 0.00 0.00 53 1017.4
20230609022632 74 303 2.0 6.0 0.00 0.00 0.00 51 1017.2
20230609022128 74 270 2.0 7.0 0.00 0.00 0.00 51 1017.3
20230609021626 74 237 0.0 3.0 0.00 0.00 0.00 51 1017.3
20230609021125 75 331 1.0 8.0 0.00 0.00 0.00 51 1017.1
20230609020623 75 346 2.0 5.0 0.00 0.00 0.00 51 1017.2
20230609020121 75 334 3.0 4.0 0.00 0.00 0.00 50 1017.0
20230609015619 75 261 0.0 4.0 0.00 0.00 0.00 50 1017.2
20230609015115 76 165 1.0 7.0 0.00 0.00 0.00 50 1016.8
20230609014613 76 270 2.0 4.0 0.00 0.00 0.00 50 1016.9
20230609014055 76 260 7.0 7.0 0.00 0.00 0.00 49 1016.8
20230609013542 76 327 7.0 8.0 0.00 0.00 0.00 49 1016.8
20230609013031 76 249 1.0 3.0 0.00 0.00 0.00 50 1016.8
20230609012528 76 329 4.0 5.0 0.00 0.00 0.00 49 1016.9
20230609012025 76 231 3.0 7.0 0.00 0.00 0.00 49 1016.6
20230609011519 77 239 2.0 3.0 0.00 0.00 0.00 49 1016.6
20230609011018 79 315 2.0 4.0 0.00 0.00 0.00 46 1016.8
20230609010513 78 257 1.0 5.0 0.00 0.00 0.00 48 1016.8
20230609010010 78 348 1.0 5.0 0.00 0.00 0.00 48 1016.6
20230609005508 77 263 3.0 4.0 0.00 0.00 0.00 48 1017.1
20230609005004 78 261 0.0 4.0 0.00 0.00 0.00 48 1016.8
20230609004503 77 289 2.0 3.0 0.00 0.00 0.00 48 1016.8
20230609004001 76 345 0.0 5.0 0.00 0.00 0.00 48 1016.7
20230609003458 77 216 3.0 6.0 0.00 0.00 0.00 48 1016.7
20230609002955 77 135 0.0 2.0 0.00 0.00 0.00 48 1016.7
20230609002451 77 270 2.0 4.0 0.00 0.00 0.00 47 1016.6
20230609001948 77 246 0.0 3.0 0.00 0.00 0.00 48 1016.7
20230609001447 77 96 0.0 2.0 0.00 0.00 0.00 48 1016.9
20230609000944 77 228 0.0 3.0 0.00 0.00 0.00 47 1016.9
20230609000444 77 231 2.0 6.0 0.00 0.00 0.00 48 1016.8
20230608235941 77 228 2.0 4.0 0.00 0.00 0.00 47 1016.8
20230608235436 77 303 2.0 4.0 0.00 0.00 0.00 48 1016.8
20230608234932 77 210 2.0 3.0 0.00 0.00 0.00 48 1016.8
20230608234431 78 215 1.0 3.0 0.00 0.00 0.00 47 1016.9
20230608233929 78 8 2.0 5.0 0.00 0.00 0.00 45 1017.0
20230608233427 79 145 1.0 6.0 0.00 0.00 0.00 46 1017.1
20230608232925 77 47 3.0 4.0 0.00 0.00 0.00 48 1017.0
20230608232424 77 236 3.0 5.0 0.00 0.00 0.00 47 1017.0
20230608231923 77 144 2.0 4.0 0.00 0.00 0.00 46 1017.0
20230608231423 78 74 1.0 3.0 0.00 0.00 0.00 46 1017.0
20230608230922 78 241 2.0 3.0 0.00 0.00 0.00 45 1016.9
20230608230419 78 105 0.0 6.0 0.00 0.00 0.00 46 1017.0
20230608225914 79 202 3.0 4.0 0.00 0.00 0.00 44 1017.0
20230608225412 80 32 2.0 4.0 0.00 0.00 0.00 46 1016.8
20230608224910 82 323 4.0 4.0 0.00 0.00 0.00 42 1017.0
20230608224408 80 6 1.0 3.0 0.00 0.00 0.00 45 1016.8
20230608223907 77 291 0.0 5.0 0.00 0.00 0.00 47 1016.7
20230608223406 77 201 2.0 7.0 0.00 0.00 0.00 48 1017.0
20230608222902 76 172 0.0 9.0 0.00 0.00 0.00 49 1017.1
20230608222358 76 141 4.0 5.0 0.00 0.00 0.00 48 1016.9
20230608221854 76 139 4.0 4.0 0.00 0.00 0.00 48 1017.0
20230608221350 76 38 5.0 5.0 0.00 0.00 0.00 49 1016.9
20230608220848 77 99 2.0 4.0 0.00 0.00 0.00 48 1016.9
20230608220347 78 95 2.0 3.0 0.00 0.00 0.00 48 1017.0
20230608215844 77 74 1.0 4.0 0.00 0.00 0.00 48 1016.9
20230608215339 78 345 0.0 4.0 0.00 0.00 0.00 47 1016.9
20230608214835 78 303 0.0 2.0 0.00 0.00 0.00 48 1017.0
20230608214328 77 8 2.0 6.0 0.00 0.00 0.00 48 1017.3
20230608213826 77 139 0.0 5.0 0.00 0.00 0.00 48 1017.1
20230608213321 77 72 6.0 8.0 0.00 0.00 0.00 48 1017.1
20230608212819 77 135 3.0 8.0 0.00 0.00 0.00 48 1017.1
20230608212314 81 81 3.0 3.0 0.00 0.00 0.00 43 1017.1
20230608211812 79 36 2.0 4.0 0.00 0.00 0.00 45 1017.1
20230608211311 78 234 0.0 5.0 0.00 0.00 0.00 45 1017.1
20230608210810 77 324 0.0 7.0 0.00 0.00 0.00 49 1017.1
20230608210308 77 227 3.0 6.0 0.00 0.00 0.00 47 1017.0
20230608205806 78 130 8.0 10.0 0.00 0.00 0.00 47 1017.2
20230608205304 78 15 1.0 6.0 0.00 0.00 0.00 47 1017.1
20230608204759 77 187 1.0 5.0 0.00 0.00 0.00 47 1017.1
20230608204258 78 331 3.0 4.0 0.00 0.00 0.00 47 1017.1
20230608203757 78 337 2.0 6.0 0.00 0.00 0.00 46 1017.2
20230608203255 76 40 3.0 7.0 0.00 0.00 0.00 49 1017.2
20230608202753 77 261 0.0 5.0 0.00 0.00 0.00 50 1017.3
20230608202248 75 109 3.0 9.0 0.00 0.00 0.00 51 1017.3
20230608201746 75 128 5.0 7.0 0.00 0.00 0.00 51 1017.4
20230608201244 77 152 3.0 6.0 0.00 0.00 0.00 50 1017.4
20230608200740 76 201 3.0 5.0 0.00 0.00 0.00 51 1017.4
20230608200236 76 243 0.0 7.0 0.00 0.00 0.00 50 1017.4
20230608195735 76 11 3.0 6.0 0.00 0.00 0.00 50 1017.5
20230608195230 76 212 2.0 8.0 0.00 0.00 0.00 51 1017.4
20230608194725 75 0 2.0 6.0 0.00 0.00 0.00 53 1017.6
20230608194223 76 241 3.0 5.0 0.00 0.00 0.00 52 1017.5
20230608193722 77 348 0.0 5.0 0.00 0.00 0.00 53 1017.5
20230608193216 78 57 2.0 3.0 0.00 0.00 0.00 52 1017.5
20230608192715 76 130 3.0 5.0 0.00 0.00 0.00 52 1017.6
20230608192211 76 267 4.0 5.0 0.00 0.00 0.00 54 1017.5
20230608191652 75 339 2.0 6.0 0.00 0.00 0.00 55 1017.6
20230608191151 76 323 3.0 5.0 0.00 0.00 0.00 52 1017.6
20230608190650 76 331 1.0 3.0 0.00 0.00 0.00 56 1017.7
20230608190146 77 90 2.0 5.0 0.00 0.00 0.00 54 1017.7
20230608185644 75 342 0.0 5.0 0.00 0.00 0.00 56 1017.8
20230608185140 73 0 1.0 4.0 0.00 0.00 0.00 57 1017.6
20230608184636 74 344 5.0 5.0 0.00 0.00 0.00 56 1017.7
20230608184135 73 350 2.0 4.0 0.00 0.00 0.00 58 1017.7
20230608183635 72 325 0.0 5.0 0.00 0.00 0.00 59 1017.8
20230608183131 72 356 2.0 5.0 0.00 0.00 0.00 59 1017.7
20230608182630 73 243 1.0 5.0 0.00 0.00 0.00 57 1017.9
20230608182127 73 0 3.0 4.0 0.00 0.00 0.00 58 1017.9
20230608181625 72 345 2.0 5.0 0.00 0.00 0.00 58 1017.6
20230608181123 72 290 3.0 4.0 0.00 0.00 0.00 59 1017.8
20230608180622 72 266 3.0 4.0 0.00 0.00 0.00 59 1017.8
20230608180120 70 47 3.0 5.0 0.00 0.00 0.00 62 1017.8
20230608175616 69 356 4.0 5.0 0.00 0.00 0.00 63 1017.7
20230608175115 70 4 4.0 5.0 0.00 0.00 0.00 63 1017.7
20230608174612 69 332 3.0 4.0 0.00 0.00 0.00 62 1018.0
20230608174111 68 53 3.0 5.0 0.00 0.00 0.00 63 1017.7
20230608173607 69 353 2.0 5.0 0.00 0.00 0.00 63 1017.8
20230608173103 68 0 1.0 4.0 0.00 0.00 0.00 66 1017.8
20230608172600 68 300 3.0 5.0 0.00 0.00 0.00 64 1017.9
20230608172056 68 319 2.0 3.0 0.00 0.00 0.00 66 1017.8
20230608171551 66 0 2.0 5.0 0.00 0.00 0.00 67 1018.0
20230608171048 67 343 4.0 5.0 0.00 0.00 0.00 66 1017.9
20230608170543 66 353 2.0 7.0 0.00 0.00 0.00 68 1017.8
20230608170040 67 356 2.0 4.0 0.00 0.00 0.00 68 1017.9
20230608165537 65 331 2.0 5.0 0.00 0.00 0.00 69 1017.9
20230608165031 66 352 0.0 3.0 0.00 0.00 0.00 68 1018.0
20230608164530 65 286 0.0 3.0 0.00 0.00 0.00 70 1018.1
20230608164026 65 334 2.0 4.0 0.00 0.00 0.00 72 1017.8
20230608163524 64 348 1.0 3.0 0.00 0.00 0.00 72 1018.0
20230608163021 63 345 0.0 4.0 0.00 0.00 0.00 75 1018.0
20230608162521 63 354 3.0 5.0 0.00 0.00 0.00 74 1017.9
20230608162016 63 286 0.0 3.0 0.00 0.00 0.00 75 1017.9
20230608161516 63 45 3.0 3.0 0.00 0.00 0.00 75 1017.8
20230608161012 62 4 2.0 4.0 0.00 0.00 0.00 75 1017.8
20230608160509 62 29 1.0 4.0 0.00 0.00 0.00 75 1017.7
20230608160008 62 26 2.0 4.0 0.00 0.00 0.00 76 1017.9
20230608155507 62 0 0.0 3.0 0.00 0.00 0.00 76 1018.0
20230608155003 61 66 0.0 4.0 0.00 0.00 0.00 76 1017.9
20230608154459 61 47 3.0 3.0 0.00 0.00 0.00 76 1017.9
20230608153957 60 60 3.0 4.0 0.00 0.00 0.00 77 1017.8
20230608153454 60 55 4.0 5.0 0.00 0.00 0.00 77 1017.8
20230608152952 60 30 3.0 4.0 0.00 0.00 0.00 77 1017.8
20230608152450 59 53 0.0 4.0 0.00 0.00 0.00 78 1017.7
20230608151946 59 77 0.0 4.0 0.00 0.00 0.00 80 1017.6
20230608151445 59 81 2.0 3.0 0.00 0.00 0.00 80 1017.7
20230608150945 59 46 4.0 4.0 0.00 0.00 0.00 81 1017.8
20230608150440 58 45 3.0 4.0 0.00 0.00 0.00 82 1017.8
20230608145939 57 36 2.0 5.0 0.00 0.00 0.00 82 1017.7
20230608145437 57 65 2.0 3.0 0.00 0.00 0.00 83 1017.8
20230608144936 57 77 3.0 3.0 0.00 0.00 0.00 84 1017.9
20230608144435 57 78 1.0 4.0 0.00 0.00 0.00 85 1017.8
20230608143934 56 21 2.0 2.0 0.00 0.00 0.00 86 1017.9
20230608143433 56 345 0.0 2.0 0.00 0.00 0.00 86 1017.7
20230608142930 56 60 1.0 4.0 0.00 0.00 0.00 85 1017.8
20230608142424 56 65 2.0 4.0 0.00 0.00 0.00 85 1017.9
20230608141922 56 68 2.0 4.0 0.00 0.00 0.00 85 1017.8
20230608141420 56 180 0.0 3.0 0.00 0.00 0.00 86 1018.0
20230608140918 55 90 0.0 2.0 0.00 0.00 0.00 86 1017.8
20230608140416 55 180 1.0 3.0 0.00 0.00 0.00 87 1017.7
20230608135913 55 120 1.0 1.0 0.00 0.00 0.00 88 1017.7
20230608135411 54 95 2.0 3.0 0.00 0.00 0.00 88 1017.6
20230608134908 54 56 2.0 3.0 0.00 0.00 0.00 88 1017.7
20230608134407 54 52 0.0 2.0 0.00 0.00 0.00 89 1017.7
20230608133905 53 99 0.0 2.0 0.00 0.00 0.00 89 1017.7
20230608133402 53 63 0.0 2.0 0.00 0.00 0.00 90 1017.7
20230608132858 52 49 0.0 0.0 0.00 0.00 0.00 91 1017.6
20230608132356 52 75 0.0 2.0 0.00 0.00 0.00 92 1017.5
20230608131854 51 99 0.0 1.0 0.00 0.00 0.00 92 1017.9
20230608131352 51 8 0.0 0.0 0.00 0.00 0.00 92 1017.4
20230608130851 51 8 0.0 0.0 0.00 0.00 0.00 92 1017.6
20230608130349 51 14 0.0 1.0 0.00 0.00 0.00 92 1017.6
20230608125846 51 234 0.0 1.0 0.00 0.00 0.00 92 1017.6
20230608125345 51 6 0.0 1.0 0.00 0.00 0.00 92 1017.6
20230608124842 51 23 0.0 0.0 0.00 0.00 0.00 92 1017.6
20230608124339 51 51 0.0 2.0 0.00 0.00 0.00 92 1017.5
20230608123837 51 23 1.0 2.0 0.00 0.00 0.00 92 1017.6
20230608123311 51 20 1.0 2.0 0.00 0.00 0.00 92 1017.6
20230608122808 51 6 1.0 2.0 0.00 0.00 0.00 92 1017.4
20230608122305 51 23 0.0 0.0 0.00 0.00 0.00 92 1017.7
20230608121801 51 23 0.0 2.0 0.00 0.00 0.00 92 1017.8
20230608121258 51 15 0.0 0.0 0.00 0.00 0.00 91 1017.6
20230608120756 51 345 0.0 0.0 0.00 0.00 0.00 91 1017.5
20230608120255 52 345 0.0 0.0 0.00 0.00 0.00 91 1017.6
20230608115753 52 345 0.0 0.0 0.00 0.00 0.00 91 1017.7
20230608115249 53 345 0.0 2.0 0.00 0.00 0.00 90 1017.5
20230608114746 53 188 0.0 0.0 0.00 0.00 0.00 90 1017.6
20230608114246 53 345 0.0 1.0 0.00 0.00 0.00 90 1017.8
20230608113743 53 0 0.0 1.0 0.00 0.00 0.00 90 1017.6
20230608113211 53 352 0.0 1.0 0.00 0.00 0.00 89 1017.6
20230608112626 53 8 0.0 0.0 0.00 0.00 0.00 89 1017.5
20230608112125 54 203 0.0 0.0 0.00 0.00 0.00 88 1017.6
20230608111625 54 188 0.0 2.0 0.00 0.00 0.00 88 1017.6
20230608111121 54 209 0.0 1.0 0.00 0.00 0.00 88 1017.7
20230608110620 54 114 0.0 0.0 0.00 0.00 0.00 88 1017.7
20230608110119 54 114 0.0 0.0 0.00 0.00 0.00 88 1017.7
20230608105617 54 114 0.0 2.0 0.00 0.00 0.00 88 1017.6
20230608105114 54 111 0.0 1.0 0.00 0.00 0.00 87 1017.7
20230608104611 55 194 1.0 1.0 0.00 0.00 0.00 87 1017.5
20230608104107 55 99 0.0 1.0 0.00 0.00 0.00 87 1017.5
20230608103605 55 82 0.0 0.0 0.00 0.00 0.00 86 1017.8
20230608103104 55 23 0.0 1.0 0.00 0.00 0.00 86 1017.5
20230608102602 55 111 0.0 2.0 0.00 0.00 0.00 86 1017.9
20230608102101 55 165 0.0 3.0 0.00 0.00 0.00 86 1017.7
20230608101558 55 201 2.0 2.0 0.00 0.00 0.00 86 1017.7
20230608101057 55 112 2.0 2.0 0.00 0.00 0.00 86 1017.8
20230608100555 55 102 0.0 1.0 0.00 0.00 0.00 86 1017.8
20230608100053 56 180 0.0 1.0 0.00 0.00 0.00 86 1017.9
20230608095552 56 187 1.0 2.0 0.00 0.00 0.00 86 1017.8
20230608095051 56 229 2.0 2.0 0.00 0.00 0.00 85 1017.9
20230608094549 56 81 0.0 2.0 0.00 0.00 0.00 85 1017.9
20230608094046 56 15 2.0 2.0 0.00 0.00 0.00 84 1017.9
20230608093544 56 38 2.0 2.0 0.00 0.00 0.00 84 1018.1
20230608093042 56 73 2.0 2.0 0.00 0.00 0.00 84 1018.2
20230608092541 56 36 2.0 2.0 0.00 0.00 0.00 85 1017.9
20230608092040 56 18 0.0 2.0 0.00 0.00 0.00 85 1018.0
20230608091538 56 53 2.0 3.0 0.00 0.00 0.00 84 1018.1
20230608091035 56 51 3.0 5.0 0.00 0.00 0.00 85 1017.9
20230608090535 56 41 2.0 3.0 0.00 0.00 0.00 85 1017.7
20230608090031 56 54 0.0 2.0 0.00 0.00 0.00 85 1017.9
20230608085528 56 90 0.0 3.0 0.00 0.00 0.00 85 1017.9
20230608085027 56 47 3.0 7.0 0.00 0.00 0.00 85 1017.8
20230608084525 56 53 2.0 3.0 0.00 0.00 0.00 85 1017.6
20230608084023 56 0 0.0 2.0 0.00 0.00 0.00 86 1017.9
20230608083521 56 83 0.0 3.0 0.00 0.00 0.00 86 1018.0
20230608083019 55 47 3.0 3.0 0.00 0.00 0.00 87 1017.9
20230608082515 55 69 0.0 2.0 0.00 0.00 0.00 87 1018.0
20230608082013 55 120 0.0 2.0 0.00 0.00 0.00 87 1018.0
20230608081510 55 105 0.0 2.0 0.00 0.00 0.00 88 1018.0
20230608081009 54 54 1.0 2.0 0.00 0.00 0.00 88 1018.0
20230608080507 54 95 2.0 2.0 0.00 0.00 0.00 87 1017.9
20230608080006 55 96 2.0 3.0 0.00 0.00 0.00 87 1017.7
20230608075504 55 71 1.0 2.0 0.00 0.00 0.00 86 1017.9
20230608075001 55 35 0.0 2.0 0.00 0.00 0.00 87 1017.9
20230608074500 55 63 2.0 2.0 0.00 0.00 0.00 86 1018.0
20230608073958 55 29 0.0 1.0 0.00 0.00 0.00 86 1017.8
20230608073456 55 29 0.0 1.0 0.00 0.00 0.00 86 1017.9
20230608072954 56 99 0.0 3.0 0.00 0.00 0.00 85 1017.9
20230608072452 56 123 0.0 4.0 0.00 0.00 0.00 85 1017.9
20230608071949 55 90 0.0 2.0 0.00 0.00 0.00 85 1017.7
20230608071448 57 119 3.0 5.0 0.00 0.00 0.00 84 1017.6
20230608070947 57 125 4.0 4.0 0.00 0.00 0.00 84 1017.8
20230608070445 57 113 0.0 3.0 0.00 0.00 0.00 83 1017.8
20230608065944 57 109 2.0 3.0 0.00 0.00 0.00 84 1017.9
20230608065443 57 114 2.0 4.0 0.00 0.00 0.00 83 1017.9
20230608064937 57 117 1.0 4.0 0.00 0.00 0.00 83 1017.7
20230608064436 56 140 0.0 5.0 0.00 0.00 0.00 84 1017.8
20230608063935 56 128 2.0 4.0 0.00 0.00 0.00 85 1018.0
20230608063432 56 105 1.0 3.0 0.00 0.00 0.00 85 1017.9
20230608062931 56 56 2.0 3.0 0.00 0.00 0.00 85 1017.8
20230608062428 56 74 0.0 1.0 0.00 0.00 0.00 85 1017.9
20230608061926 56 187 0.0 2.0 0.00 0.00 0.00 85 1017.8
20230608061424 56 120 0.0 2.0 0.00 0.00 0.00 85 1017.9
20230608060923 57 90 0.0 1.0 0.00 0.00 0.00 84 1017.8
20230608060419 57 14 1.0 2.0 0.00 0.00 0.00 85 1017.9
20230608055918 57 90 0.0 2.0 0.00 0.00 0.00 84 1017.9
20230608055417 57 77 2.0 3.0 0.00 0.00 0.00 84 1017.9
20230608054916 57 90 0.0 2.0 0.00 0.00 0.00 83 1017.7
20230608054412 57 194 0.0 2.0 0.00 0.00 0.00 83 1017.7
20230608053910 58 90 0.0 1.0 0.00 0.00 0.00 82 1017.7
20230608053410 58 53 2.0 3.0 0.00 0.00 0.00 81 1017.5
20230608052909 58 188 0.0 1.0 0.00 0.00 0.00 81 1017.6
20230608052407 58 180 0.0 2.0 0.00 0.00 0.00 81 1017.7
20230608051904 59 61 2.0 3.0 0.00 0.00 0.00 81 1017.7
20230608051403 60 192 0.0 2.0 0.00 0.00 0.00 79 1017.6
20230608050900 61 29 1.0 2.0 0.00 0.00 0.00 77 1017.7
20230608050359 60 203 1.0 3.0 0.00 0.00 0.00 77 1017.6
20230608045858 59 180 0.0 2.0 0.00 0.00 0.00 79 1017.7
20230608045357 59 74 2.0 2.0 0.00 0.00 0.00 80 1017.3
20230608044853 59 83 0.0 2.0 0.00 0.00 0.00 80 1017.2
20230608044351 60 47 3.0 3.0 0.00 0.00 0.00 79 1017.2
20230608043848 60 106 0.0 2.0 0.00 0.00 0.00 79 1017.0
20230608043348 60 81 0.0 2.0 0.00 0.00 0.00 78 1017.1
20230608042843 60 129 0.0 3.0 0.00 0.00 0.00 77 1017.1
20230608042342 61 106 0.0 1.0 0.00 0.00 0.00 77 1016.9
20230608041838 61 60 1.0 2.0 0.00 0.00 0.00 76 1016.8
20230608041337 61 106 0.0 2.0 0.00 0.00 0.00 76 1016.9